Tracking 35274 objects as of 12-Sep-2026
HD Live streaming from Space Station
objects crossing your sky now

STARLINK-1321

Track STARLINK-1321 now!
10-day predictions
STARLINK-1321 is classified as:


NORAD ID: 45573
Int'l Code: 2020-025AU
Launch date: April 22, 2020
Source: United States (US)
Launch site: AIR FORCE EASTERN TEST RANGE (AFETR)
Your satellite tracking list
Your tracking list is empty




NASA's NSSDC Master Catalog

Two Line Element Set (TLE):
1 45573U 20025AU  26255.14769002  .00085639  00000-0  43134-3 0  9991
2 45573  53.0325 223.0033 0005985  60.1034 300.0581 15.80938485354660
Source of the keplerian elements: AFSPC